When you browse on this site, cookies collect data to enhance your experience and personalize the content and advertising you see.
Visit our Privacy Policy to learn more. By continuing to use the site, you agree to this use of cookies and data.
  • In Hungary
  • List of Countries
  • For 7 days
  • Water Temperature
  • Satellite Maps
  • Weather Map
  • News
  • Weather Widgets
  • user-avatar
    Login

    Hourly Weather Posyahva

    Today, 22 July, Monday

    Time Temperature Precipitation Wind Pressure Humidity
    00:00 +20°C° 0.1 mm 2 mps 744 mmHg 90%
    01:00 +19°C° 0.1 mm 3 mps 744 mmHg 92%
    02:00 +19°C° 0 mm 4 mps 744 mmHg 95%
    03:00 +18°C° 0.2 mm 4 mps 744 mmHg 95%
    04:00 +18°C° 0.2 mm 4 mps 744 mmHg 95%
    05:00 +17°C° 0.2 mm 4 mps 744 mmHg 95%
    06:00 +18°C° 0 mm 4 mps 744 mmHg 94%
    07:00 +18°C° 0 mm 3 mps 744 mmHg 93%
    08:00 +19°C° 0 mm 3 mps 745 mmHg 92%
    09:00 +20°C° 0.3 mm 4 mps 745 mmHg 88%
    10:00 +21°C° 0.3 mm 4 mps 745 mmHg 84%
    11:00 +22°C° 0.3 mm 4 mps 745 mmHg 79%
    12:00 +23°C° 0.5 mm 5 mps 745 mmHg 76%
    13:00 +25°C° 0.5 mm 5 mps 745 mmHg 72%
    14:00 +25°C° 0.5 mm 5 mps 745 mmHg 68%
    15:00 +25°C° 0.1 mm 5 mps 745 mmHg 67%
    16:00 +25°C° 0.1 mm 5 mps 744 mmHg 66%
    17:00 +25°C° 0.1 mm 5 mps 744 mmHg 65%
    18:00 +22°C° 0 mm 4 mps 744 mmHg 70%
    19:00 +21°C° 0 mm 3 mps 744 mmHg 75%
    20:00 +19°C° 0 mm 3 mps 744 mmHg 80%
    21:00 +19°C° 0 mm 3 mps 744 mmHg 79%
    22:00 +18°C° 0 mm 3 mps 744 mmHg 79%
    23:00 +17°C° 0 mm 3 mps 744 mmHg 79%

    Tomorrow, 23 July, Tuesday

    Time Temperature Precipitation Wind Pressure Humidity
    00:00 +17°C° 0 mm 3 mps 744 mmHg 80%
    01:00 +17°C° 0 mm 3 mps 744 mmHg 82%
    02:00 +17°C° 0 mm 3 mps 744 mmHg 83%
    03:00 +17°C° 0.1 mm 3 mps 744 mmHg 85%
    04:00 +16°C° 0.1 mm 2 mps 744 mmHg 87%
    05:00 +15°C° 0.1 mm 2 mps 744 mmHg 90%
    06:00 +16°C° 0 mm 3 mps 743 mmHg 85%
    07:00 +17°C° 0 mm 3 mps 743 mmHg 80%
    08:00 +18°C° 0 mm 3 mps 743 mmHg 76%
    09:00 +19°C° 0 mm 4 mps 743 mmHg 71%
    10:00 +20°C° 0 mm 4 mps 743 mmHg 66%
    11:00 +21°C° 0 mm 5 mps 743 mmHg 62%
    12:00 +21°C° 0 mm 5 mps 743 mmHg 61%
    13:00 +22°C° 0 mm 5 mps 743 mmHg 60%
    14:00 +23°C° 0 mm 5 mps 742 mmHg 60%
    15:00 +22°C° 0 mm 5 mps 742 mmHg 61%
    16:00 +22°C° 0 mm 5 mps 742 mmHg 62%
    17:00 +22°C° 0 mm 5 mps 742 mmHg 63%
    18:00 +21°C° 0.1 mm 4 mps 742 mmHg 69%
    19:00 +19°C° 0.1 mm 3 mps 742 mmHg 75%
    20:00 +18°C° 0.1 mm 2 mps 742 mmHg 81%
    21:00 +17°C° 0 mm 3 mps 742 mmHg 84%
    22:00 +16°C° 0 mm 3 mps 742 mmHg 86%
    23:00 +16°C° 0 mm 3 mps 742 mmHg 88%

    Day after tomorrow, 24 July, Wednesday

    Time Temperature Precipitation Wind Pressure Humidity
    00:00 +14°C° 0 mm 3 mps 742 mmHg 90%
    01:00 +14°C° 0 mm 4 mps 742 mmHg 91%
    02:00 +14°C° 0 mm 4 mps 742 mmHg 93%
    03:00 +14°C° 0 mm 4 mps 742 mmHg 94%
    04:00 +14°C° 0 mm 4 mps 742 mmHg 95%
    05:00 +14°C° 0 mm 5 mps 742 mmHg 96%
    06:00 +15°C° 0 mm 5 mps 742 mmHg 93%
    07:00 +16°C° 0 mm 5 mps 742 mmHg 89%
    08:00 +19°C° 0 mm 5 mps 742 mmHg 85%
    09:00 +20°C° 0.1 mm 5 mps 742 mmHg 80%
    10:00 +21°C° 0.1 mm 5 mps 742 mmHg 75%
    11:00 +23°C° 0.1 mm 6 mps 742 mmHg 69%
    12:00 +23°C° 0.1 mm 6 mps 742 mmHg 65%
    13:00 +24°C° 0.1 mm 6 mps 742 mmHg 61%
    14:00 +26°C° 0.1 mm 6 mps 742 mmHg 57%
    15:00 +26°C° 0 mm 5 mps 742 mmHg 59%
    16:00 +25°C° 0 mm 5 mps 742 mmHg 61%
    17:00 +25°C° 0 mm 5 mps 742 mmHg 63%
    18:00 +23°C° 0.1 mm 4 mps 742 mmHg 68%
    19:00 +21°C° 0.1 mm 4 mps 742 mmHg 73%
    20:00 +19°C° 0.1 mm 3 mps 742 mmHg 78%
    21:00 +18°C° 0 mm 3 mps 742 mmHg 81%
    22:00 +17°C° 0 mm 3 mps 743 mmHg 84%
    23:00 +16°C° 0 mm 3 mps 743 mmHg 88%

    25 July, Thursday

    Time Temperature Precipitation Wind Pressure Humidity
    00:00 +16°C° 0 mm 3 mps 743 mmHg 89%
    01:00 +16°C° 0 mm 3 mps 743 mmHg 91%
    02:00 +16°C° 0 mm 3 mps 743 mmHg 92%
    03:00 +14°C° 0 mm 3 mps 743 mmHg 93%
    04:00 +14°C° 0 mm 3 mps 743 mmHg 94%
    05:00 +14°C° 0 mm 3 mps 743 mmHg 95%
    06:00 +16°C° 0 mm 3 mps 744 mmHg 89%
    07:00 +18°C° 0 mm 4 mps 744 mmHg 83%
    08:00 +19°C° 0 mm 4 mps 744 mmHg 78%
    09:00 +21°C° 0 mm 4 mps 744 mmHg 71%
    10:00 +22°C° 0 mm 4 mps 744 mmHg 64%
    11:00 +23°C° 0 mm 5 mps 744 mmHg 58%
    12:00 +25°C° 0 mm 5 mps 744 mmHg 56%
    13:00 +25°C° 0 mm 5 mps 744 mmHg 55%
    14:00 +26°C° 0 mm 5 mps 744 mmHg 53%
    15:00 +26°C° 0 mm 5 mps 744 mmHg 55%
    16:00 +25°C° 0 mm 5 mps 744 mmHg 57%
    17:00 +25°C° 0 mm 4 mps 743 mmHg 59%
    18:00 +23°C° 0 mm 4 mps 743 mmHg 66%
    19:00 +21°C° 0 mm 4 mps 743 mmHg 72%
    20:00 +19°C° 0 mm 3 mps 743 mmHg 78%
    21:00 +19°C° 0 mm 4 mps 743 mmHg 81%
    22:00 +18°C° 0 mm 4 mps 743 mmHg 84%
    23:00 +17°C° 0 mm 4 mps 743 mmHg 87%

    26 July, Friday

    Time Temperature Precipitation Wind Pressure Humidity
    00:00 +17°C° 0 mm 4 mps 743 mmHg 90%
    01:00 +15°C° 0 mm 4 mps 743 mmHg 93%
    02:00 +15°C° 0 mm 4 mps 742 mmHg 95%
    03:00 +16°C° 0 mm 3 mps 742 mmHg 96%
    04:00 +14°C° 0 mm 3 mps 742 mmHg 96%
    05:00 +14°C° 0 mm 3 mps 742 mmHg 96%
    06:00 +15°C° 0 mm 4 mps 742 mmHg 91%
    07:00 +18°C° 0 mm 4 mps 742 mmHg 86%
    08:00 +19°C° 0 mm 5 mps 742 mmHg 80%
    09:00 +20°C° 0 mm 5 mps 742 mmHg 78%
    10:00 +21°C° 0 mm 4 mps 742 mmHg 76%
    11:00 +22°C° 0 mm 4 mps 742 mmHg 74%
    12:00 +22°C° 0.3 mm 4 mps 742 mmHg 72%
    13:00 +23°C° 0.3 mm 4 mps 742 mmHg 71%
    14:00 +25°C° 0.3 mm 4 mps 742 mmHg 70%
    15:00 +23°C° 0.3 mm 4 mps 741 mmHg 71%
    16:00 +23°C° 0.3 mm 4 mps 741 mmHg 73%
    17:00 +23°C° 0.3 mm 4 mps 741 mmHg 75%
    18:00 +21°C° 0.1 mm 4 mps 741 mmHg 80%
    19:00 +20°C° 0.1 mm 3 mps 741 mmHg 85%
    20:00 +19°C° 0.1 mm 3 mps 741 mmHg 89%
    21:00 +19°C° 0 mm 3 mps 741 mmHg 91%
    22:00 +18°C° 0 mm 3 mps 740 mmHg 94%
    23:00 +18°C° 0 mm 3 mps 740 mmHg 96%

    27 July, Saturday

    Time Temperature Precipitation Wind Pressure Humidity
    00:00 +18°C° 0 mm 3 mps 740 mmHg 96%
    01:00 +17°C° 0 mm 3 mps 740 mmHg 97%
    02:00 +17°C° 0 mm 3 mps 740 mmHg 97%
    03:00 +17°C° 0 mm 3 mps 740 mmHg 97%
    04:00 +17°C° 0 mm 3 mps 740 mmHg 98%
    05:00 +17°C° 0 mm 3 mps 740 mmHg 98%
    06:00 +18°C° 0 mm 3 mps 741 mmHg 95%
    07:00 +19°C° 0 mm 3 mps 741 mmHg 92%
    08:00 +20°C° 0 mm 3 mps 741 mmHg 88%
    09:00 +22°C° 0 mm 3 mps 741 mmHg 82%
    10:00 +23°C° 0 mm 4 mps 741 mmHg 75%
    11:00 +26°C° 0 mm 4 mps 741 mmHg 69%
    12:00 +26°C° 0.3 mm 4 mps 741 mmHg 67%
    13:00 +27°C° 0.3 mm 4 mps 741 mmHg 65%
    14:00 +27°C° 0.3 mm 4 mps 740 mmHg 63%
    15:00 +27°C° 1 mm 4 mps 740 mmHg 66%
    16:00 +27°C° 1 mm 4 mps 740 mmHg 69%
    17:00 +27°C° 1 mm 4 mps 740 mmHg 72%
    18:00 +25°C° 0.6 mm 4 mps 740 mmHg 76%
    19:00 +24°C° 0.6 mm 3 mps 740 mmHg 81%
    20:00 +21°C° 0.6 mm 3 mps 740 mmHg 86%
    21:00 +21°C° 0 mm 3 mps 741 mmHg 89%
    22:00 +20°C° 0 mm 3 mps 741 mmHg 91%
    23:00 +19°C° 0 mm 2 mps 741 mmHg 93%
    Show more